STARLINK-30137, 56843

Orbit data source: Space-Track

STARLINK-30137, 56843 is a payload satellite owned by SpaceX/Seattle (US) in LEO that was launched on Sun, 04 Jun 2023 UTC via an FALCON 9 launch vehicle from the Air Force Eastern Test Range (AFETR). Payload-class satellites include a variety of spacecraft equipped with specific instruments for various scientific and technological missions. These include communications satellites like Starlink; space stations such as the ISS; scientific satellites like the Hubble; Earth observation satellites from companies like Planet Labs, Umbra, and HawkEye 360; GPS; miniature CubeSats for education and research; and military/defense satellites.

Loading next visibility...
Identifier
56843, 2023-079W
Orbit
LEO
Country
Flag of USUS
Related business
Manufacturer
SpaceX/Seattle
Mission
Operational Commercial Communications
Bus & Motor
STARLINK V2M, Unknown motor
Mass
730 kg wet, ~700 kg dry
Launch date (UTC)
2023-06-04 (3 years ago)
Launch vehicle
FALCON 9
Launch site
Air Force Eastern Test Range (AFETR)
Object type
Payload
Rocket body
Debris
Shape & HBR
Box + 2 Pan, 17.7 m
Radar Cross Section
33.884 m², Large (>1 m²)

Expand to show TLE details & history
Last TLE update: 3 days ago

TLE from 3 days ago
0 STARLINK-30137
1 56843U 23079W   26170.52083918  .00002298  00000-0  93009-4 0  9995
2 56843  43.0046 251.7302 0001513 248.4260 111.6431 15.27574935168461
Epoch: 2026-06-19T12:30Z
TLE epoch observation values (Epoch: 2026-06-19T12:30:00.505Z)
Latitude
0.00003°
Longitude
156.4795°
Altitude
483.223 km
Speed
7.625 km/s
True Right ascension
16h 46m 55s
True Declination
0° 00' 00"
Sunlit
Object was in full shadow at epoch
Visualization orbit readout
Latitude
Unknown
Longitude
Unknown
Altitude
Unknown
Speed
Unknown
Apparent Right ascension
Unknown
Apparent Declination
Unknown
Sunlit
N/A
Visualization observer readout
Local Sidereal Time
21:31:21
Azimuth
Unknown
Elevation
Unknown
Doppler factor
Unknown
Orbital elements
Apogee altitude
486.047 km
Perigee altitude
483.97 km
Semi-major axis
6,863.146 km
Eccentricity
0.00015
Inclination
43.0046°
RAAN
251.7302°
Arg. of periapsis
248.426°
True anomaly
111.65921°
Mean anomaly
111.6431°
Eccentric anomaly
111.65116°
Mean motion
3.81732 °/min
Orbital period
94.31 mins
BSTAR
0.000093009
Loading maneuver chart data...
Computing Atmospheric mass density...
Loading historical data...
Loading historical data...
Loading historical data...
Loading historical data...
Loading historical data...
Loading historical data...
Loading historical data...

Documentation

Showing up to 5 results
|